• In Netherlands
  • List of Countries
  • For 7 days
  • Water Temperature
  • Satellite Maps
  • Weather Map
  • Weather Widgets
  • user-avatar
    Login

    Hourly Weather Herāt

    Today, 26 May, Friday

    Time Temperature Precipitation Wind Pressure Humidity
    00:00 +28°C° 0 mm 4 mps 679 mmHg 16%
    01:00 +27°C° 0 mm 4 mps 679 mmHg 17%
    02:00 +27°C° 0 mm 4 mps 679 mmHg 18%
    03:00 +26°C° 0 mm 5 mps 679 mmHg 20%
    04:00 +25°C° 0 mm 5 mps 679 mmHg 22%
    05:00 +26°C° 0 mm 5 mps 679 mmHg 23%
    06:00 +27°C° 0 mm 6 mps 680 mmHg 24%
    07:00 +27°C° 0 mm 6 mps 680 mmHg 25%
    08:00 +29°C° 0 mm 6 mps 680 mmHg 22%
    09:00 +32°C° 0 mm 6 mps 681 mmHg 20%
    10:00 +34°C° 0 mm 6 mps 681 mmHg 17%
    11:00 +35°C° 0 mm 6 mps 681 mmHg 16%
    12:00 +36°C° 0 mm 6 mps 681 mmHg 15%
    13:00 +38°C° 0 mm 6 mps 681 mmHg 13%
    14:00 +38°C° 0 mm 7 mps 680 mmHg 13%
    15:00 +38°C° 0 mm 7 mps 680 mmHg 13%
    16:00 +38°C° 0 mm 7 mps 680 mmHg 14%
    17:00 +35°C° 0 mm 6 mps 679 mmHg 16%
    18:00 +34°C° 0 mm 6 mps 679 mmHg 18%
    19:00 +32°C° 0 mm 6 mps 679 mmHg 20%
    20:00 +30°C° 0 mm 6 mps 679 mmHg 21%
    21:00 +30°C° 0 mm 6 mps 679 mmHg 23%
    22:00 +29°C° 0 mm 6 mps 679 mmHg 24%
    23:00 +28°C° 0 mm 6 mps 679 mmHg 25%

    Tomorrow, 27 May, Saturday

    Time Temperature Precipitation Wind Pressure Humidity
    00:00 +27°C° 0 mm 6 mps 679 mmHg 27%
    01:00 +27°C° 0 mm 5 mps 679 mmHg 28%
    02:00 +26°C° 0 mm 5 mps 678 mmHg 29%
    03:00 +25°C° 0 mm 5 mps 678 mmHg 30%
    04:00 +25°C° 0 mm 4 mps 678 mmHg 32%
    05:00 +26°C° 0 mm 4 mps 678 mmHg 30%
    06:00 +27°C° 0 mm 4 mps 679 mmHg 28%
    07:00 +28°C° 0 mm 3 mps 679 mmHg 26%
    08:00 +30°C° 0 mm 3 mps 679 mmHg 22%
    09:00 +33°C° 0 mm 3 mps 680 mmHg 18%
    10:00 +35°C° 0 mm 3 mps 680 mmHg 14%
    11:00 +36°C° 0 mm 4 mps 680 mmHg 12%
    12:00 +38°C° 0 mm 4 mps 679 mmHg 11%
    13:00 +40°C° 0 mm 4 mps 679 mmHg 9%
    14:00 +40°C° 0 mm 5 mps 679 mmHg 9%
    15:00 +40°C° 0 mm 5 mps 678 mmHg 9%
    16:00 +40°C° 0 mm 5 mps 678 mmHg 9%
    17:00 +37°C° 0 mm 5 mps 677 mmHg 10%
    18:00 +36°C° 0 mm 4 mps 677 mmHg 12%
    19:00 +34°C° 0 mm 4 mps 677 mmHg 13%
    20:00 +33°C° 0 mm 4 mps 677 mmHg 13%
    21:00 +31°C° 0 mm 3 mps 677 mmHg 14%
    22:00 +30°C° 0 mm 3 mps 677 mmHg 14%
    23:00 +29°C° 0 mm 3 mps 677 mmHg 14%

    Day after tomorrow, 28 May, Sunday

    Time Temperature Precipitation Wind Pressure Humidity
    00:00 +29°C° 0 mm 3 mps 677 mmHg 15%
    01:00 +28°C° 0 mm 2 mps 676 mmHg 15%
    02:00 +28°C° 0 mm 2 mps 676 mmHg 16%
    03:00 +27°C° 0 mm 2 mps 676 mmHg 16%
    04:00 +26°C° 0 mm 2 mps 676 mmHg 17%
    05:00 +28°C° 0 mm 2 mps 677 mmHg 16%
    06:00 +29°C° 0 mm 2 mps 677 mmHg 15%
    07:00 +31°C° 0 mm 2 mps 678 mmHg 14%
    08:00 +34°C° 0 mm 3 mps 678 mmHg 12%
    09:00 +36°C° 0 mm 3 mps 679 mmHg 10%
    10:00 +38°C° 0 mm 4 mps 679 mmHg 8%
    11:00 +38°C° 0 mm 4 mps 679 mmHg 8%
    12:00 +40°C° 0 mm 4 mps 679 mmHg 7%
    13:00 +41°C° 0 mm 5 mps 678 mmHg 7%
    14:00 +41°C° 0 mm 5 mps 678 mmHg 7%
    15:00 +41°C° 0 mm 5 mps 678 mmHg 7%
    16:00 +41°C° 0 mm 6 mps 677 mmHg 7%
    17:00 +39°C° 0 mm 5 mps 677 mmHg 8%
    18:00 +37°C° 0 mm 4 mps 677 mmHg 9%
    19:00 +35°C° 0 mm 4 mps 677 mmHg 10%
    20:00 +34°C° 0 mm 3 mps 677 mmHg 11%
    21:00 +33°C° 0 mm 3 mps 677 mmHg 11%
    22:00 +31°C° 0 mm 3 mps 677 mmHg 12%
    23:00 +30°C° 0 mm 3 mps 677 mmHg 12%

    29 May, Monday

    Time Temperature Precipitation Wind Pressure Humidity
    00:00 +29°C° 0 mm 2 mps 677 mmHg 12%
    01:00 +29°C° 0 mm 2 mps 676 mmHg 12%
    02:00 +28°C° 0 mm 2 mps 676 mmHg 13%
    03:00 +28°C° 0 mm 2 mps 676 mmHg 13%
    04:00 +27°C° 0 mm 2 mps 676 mmHg 13%
    05:00 +29°C° 0 mm 3 mps 677 mmHg 13%
    06:00 +30°C° 0 mm 3 mps 677 mmHg 14%
    07:00 +32°C° 0 mm 4 mps 678 mmHg 14%
    08:00 +34°C° 0 mm 4 mps 678 mmHg 12%
    09:00 +36°C° 0 mm 4 mps 679 mmHg 11%
    10:00 +37°C° 0 mm 5 mps 679 mmHg 10%
    11:00 +39°C° 0 mm 5 mps 679 mmHg 9%
    12:00 +40°C° 0 mm 5 mps 679 mmHg 9%
    13:00 +41°C° 0 mm 6 mps 678 mmHg 8%
    14:00 +41°C° 0 mm 6 mps 678 mmHg 9%
    15:00 +41°C° 0 mm 7 mps 678 mmHg 10%
    16:00 +40°C° 0 mm 8 mps 678 mmHg 10%
    17:00 +39°C° 0 mm 9 mps 678 mmHg 12%
    18:00 +37°C° 0 mm 9 mps 678 mmHg 14%
    19:00 +34°C° 0 mm 10 mps 678 mmHg 16%
    20:00 +33°C° 0 mm 10 mps 679 mmHg 18%
    21:00 +32°C° 0 mm 11 mps 679 mmHg 19%
    22:00 +29°C° 0 mm 12 mps 680 mmHg 21%
    23:00 +28°C° 0 mm 12 mps 680 mmHg 22%

    30 May, Tuesday

    Time Temperature Precipitation Wind Pressure Humidity
    00:00 +28°C° 0 mm 12 mps 680 mmHg 24%
    01:00 +27°C° 0 mm 12 mps 680 mmHg 25%
    02:00 +26°C° 0 mm 12 mps 680 mmHg 28%
    03:00 +24°C° 0 mm 12 mps 680 mmHg 31%
    04:00 +23°C° 0 mm 12 mps 680 mmHg 34%
    05:00 +24°C° 0 mm 12 mps 681 mmHg 33%
    06:00 +24°C° 0 mm 12 mps 681 mmHg 33%
    07:00 +26°C° 0 mm 12 mps 681 mmHg 33%
    08:00 +27°C° 0 mm 12 mps 681 mmHg 30%
    09:00 +28°C° 0 mm 12 mps 682 mmHg 27%
    10:00 +31°C° 0 mm 12 mps 682 mmHg 24%
    11:00 +32°C° 0 mm 12 mps 681 mmHg 23%
    12:00 +32°C° 0 mm 12 mps 681 mmHg 22%
    13:00 +33°C° 0 mm 12 mps 681 mmHg 22%
    14:00 +33°C° 0 mm 12 mps 680 mmHg 22%
    15:00 +32°C° 0 mm 12 mps 680 mmHg 22%
    16:00 +32°C° 0 mm 13 mps 680 mmHg 23%
    17:00 +31°C° 0 mm 12 mps 680 mmHg 24%
    18:00 +28°C° 0 mm 11 mps 680 mmHg 26%
    19:00 +27°C° 0 mm 11 mps 680 mmHg 28%
    20:00 +26°C° 0 mm 10 mps 680 mmHg 28%
    21:00 +24°C° 0 mm 10 mps 680 mmHg 27%
    22:00 +23°C° 0 mm 9 mps 680 mmHg 27%
    23:00 +22°C° 0 mm 9 mps 679 mmHg 25%

    31 May, Wednesday

    Time Temperature Precipitation Wind Pressure Humidity
    00:00 +22°C° 0 mm 8 mps 679 mmHg 24%
    01:00 +21°C° 0 mm 7 mps 679 mmHg 22%
    02:00 +21°C° 0 mm 7 mps 678 mmHg 21%
    03:00 +20°C° 0 mm 6 mps 678 mmHg 21%
    04:00 +20°C° 0 mm 6 mps 678 mmHg 21%
    05:00 +21°C° 0 mm 6 mps 678 mmHg 20%
    06:00 +22°C° 0 mm 6 mps 679 mmHg 19%
    07:00 +23°C° 0 mm 7 mps 679 mmHg 18%
    08:00 +26°C° 0 mm 7 mps 679 mmHg 16%
    09:00 +27°C° 0 mm 7 mps 679 mmHg 14%
    10:00 +29°C° 0 mm 8 mps 680 mmHg 12%
    11:00 +31°C° 0 mm 8 mps 679 mmHg 11%
    12:00 +32°C° 0 mm 8 mps 679 mmHg 10%
    13:00 +33°C° 0 mm 8 mps 679 mmHg 9%
    14:00 +33°C° 0 mm 8 mps 678 mmHg 9%
    15:00 +33°C° 0 mm 9 mps 678 mmHg 9%
    16:00 +33°C° 0 mm 9 mps 678 mmHg 9%
    17:00 +31°C° 0 mm 8 mps 678 mmHg 9%
    18:00 +29°C° 0 mm 7 mps 678 mmHg 10%
    19:00 +27°C° 0 mm 7 mps 678 mmHg 11%
    20:00 +26°C° 0 mm 6 mps 678 mmHg 11%
    21:00 +24°C° 0 mm 6 mps 678 mmHg 11%
    22:00 +23°C° 0 mm 5 mps 678 mmHg 11%
    23:00 +23°C° 0 mm 5 mps 678 mmHg 12%
    Show more